Tracking 23752 objects as of 24-Oct-2021
HD Live streaming from Space Station
objects crossing your sky now

SL-14 DEB

Track SL-14 DEB now!
10-day predictions


NORAD ID: 45293
Int'l Code: 1991-056AF
Perigee: 829.9 km
Apogee: 1,247.1 km
Inclination: 82.6 °
Period: 105.8 minutes
Semi major axis: 7409 km
RCS: Unknown
Launch date: August 15, 1991
Source: Commonwealth of Independent States (former USSR) (CIS)
Launch site: PLESETSK MISSILE AND SPACE COMPLEX (PKMTR)

Note: This is SATELLITE DEBRIS
aabbcc
Your satellite tracking list
Your tracking list is empty




NASA's NSSDC Master Catalog

Two Line Element Set (TLE):
1 45293U 91056AF  21295.53467697 -.00000105  00000-0 -11743-3 0  9997
2 45293  82.5607 225.7406 0281523 269.3065  87.5821 13.61180194 83153
Source of the keplerian elements: AFSPC